Location: Oshawa
(43.9000°N, 78.8670°W)
Time: 23:33:47
(UTC-04:00)

Explorer 11/Cluster Stage 4 - Visible Passes

Search period start: 29 August 2015 00:00
Search period end: 08 September 2015 00:00
Orbit: 467 x 1270 km, 28.8° (Epoch: 29 August)

Date Brightness Start Highest point End Pass type
(mag) Time Alt. Az. Time Alt. Az. Time Alt. Az.
29 Aug 9.3 06:03:45 10° SSW 06:08:24 17° SSE 06:13:27 10° ESE visible
30 Aug 9.2 05:54:23 10° SSW 05:59:14 19° SSE 06:04:32 10° ESE visible
31 Aug 9.1 05:45:07 10° SSW 05:50:03 20° SSE 05:55:30 10° ESE visible
01 Sep 8.9 05:35:56 10° SSW 05:40:54 20° SSE 05:46:26 10° ESE visible
02 Sep 8.8 05:27:01 11° SSW 05:31:45 21° SSE 05:37:18 10° ESE visible
03 Sep 8.7 05:18:44 13° SSW 05:22:38 21° SSE 05:28:08 10° ESE visible
04 Sep 8.5 05:10:27 16° SSW 05:13:32 21° S 05:18:54 10° SE visible
05 Sep 8.4 05:02:10 18° SSW 05:04:26 21° S 05:09:39 10° SE visible
06 Sep 8.3 04:53:56 19° S 04:55:22 21° S 05:00:21 10° SE visible
07 Sep 8.3 04:45:44 19° S 04:46:19 20° S 04:51:01 10° SE visible
